02/09/2026 / 06/09/2026
| Fecha / Hora | Descripción | Porcentaje Nubes | Temperatura | Humedad | Viento | |
| miércoles 02/09/2026 00:00 hs | lluvia de gran intensidad | 100 % | 20.7 ° | 95 % | 33.8 Km/h | |
| miércoles 02/09/2026 03:00 hs | lluvia moderada | 100 % | 20.3 ° | 92 % | 25.8 Km/h | |
| miércoles 02/09/2026 06:00 hs | lluvia ligera | 100 % | 19.8 ° | 90 % | 29.1 Km/h | |
| miércoles 02/09/2026 09:00 hs | lluvia ligera | 100 % | 20.6 ° | 81 % | 25 Km/h | |
| miércoles 02/09/2026 12:00 hs | lluvia ligera | 69 % | 21.8 ° | 67 % | 24.7 Km/h | |
| miércoles 02/09/2026 15:00 hs | nubes dispersas | 50 % | 21.2 ° | 68 % | 25.6 Km/h | |
| miércoles 02/09/2026 18:00 hs | cielo claro | 0 % | 19.9 ° | 72 % | 20.2 Km/h | |
| miércoles 02/09/2026 21:00 hs | cielo claro | 0 % | 19.4 ° | 71 % | 15.5 Km/h | |
| jueves 03/09/2026 00:00 hs | nubes dispersas | 26 % | 18.6 ° | 71 % | 2.8 Km/h | |
| jueves 03/09/2026 03:00 hs | nubes dispersas | 34 % | 18.6 ° | 70 % | 2.8 Km/h | |
| jueves 03/09/2026 06:00 hs | cielo claro | 7 % | 18.1 ° | 73 % | 10.3 Km/h | |
| jueves 03/09/2026 09:00 hs | cielo claro | 3 % | 20.1 ° | 70 % | 22.6 Km/h | |
| jueves 03/09/2026 12:00 hs | cielo claro | 0 % | 21.1 ° | 68 % | 30.6 Km/h | |
| jueves 03/09/2026 15:00 hs | cielo claro | 0 % | 21.4 ° | 73 % | 41.1 Km/h | |
| jueves 03/09/2026 18:00 hs | cielo claro | 0 % | 21.1 ° | 75 % | 42.6 Km/h | |
| jueves 03/09/2026 21:00 hs | cielo claro | 0 % | 20.4 ° | 80 % | 45 Km/h | |
| viernes 04/09/2026 00:00 hs | cielo claro | 0 % | 20.2 ° | 85 % | 42.2 Km/h | |
| viernes 04/09/2026 03:00 hs | cielo claro | 0 % | 19.9 ° | 87 % | 37.9 Km/h | |
| viernes 04/09/2026 06:00 hs | cielo claro | 0 % | 19.4 ° | 87 % | 30.2 Km/h | |
| viernes 04/09/2026 09:00 hs | cielo claro | 0 % | 22.3 ° | 77 % | 27 Km/h | |
| viernes 04/09/2026 12:00 hs | cielo claro | 0 % | 25.7 ° | 68 % | 18 Km/h | |
| viernes 04/09/2026 15:00 hs | cielo claro | 0 % | 25.9 ° | 71 % | 11.9 Km/h | |
| viernes 04/09/2026 18:00 hs | cielo claro | 0 % | 22.7 ° | 84 % | 13.2 Km/h | |
| viernes 04/09/2026 21:00 hs | lluvia ligera | 17 % | 21.5 ° | 91 % | 15.5 Km/h | |
| sábado 05/09/2026 00:00 hs | nubes | 95 % | 21.5 ° | 86 % | 34.1 Km/h | |
| sábado 05/09/2026 03:00 hs | muy nuboso | 65 % | 20.9 ° | 94 % | 21.5 Km/h | |
| sábado 05/09/2026 06:00 hs | lluvia ligera | 70 % | 20.6 ° | 94 % | 10.5 Km/h | |
| sábado 05/09/2026 09:00 hs | lluvia ligera | 73 % | 21.6 ° | 89 % | 6.6 Km/h | |
| sábado 05/09/2026 12:00 hs | lluvia ligera | 97 % | 21.3 ° | 84 % | 15.3 Km/h | |
| sábado 05/09/2026 15:00 hs | muy nuboso | 70 % | 22.5 ° | 81 % | 20.4 Km/h | |
| sábado 05/09/2026 18:00 hs | lluvia ligera | 75 % | 21.5 ° | 94 % | 14.7 Km/h | |
| sábado 05/09/2026 21:00 hs | lluvia ligera | 66 % | 20.9 ° | 92 % | 17.2 Km/h | |
| domingo 06/09/2026 00:00 hs | lluvia ligera | 100 % | 20.5 ° | 95 % | 14.2 Km/h | |
| domingo 06/09/2026 03:00 hs | lluvia ligera | 100 % | 20.5 ° | 95 % | 19.4 Km/h | |
| domingo 06/09/2026 06:00 hs | lluvia ligera | 100 % | 19.9 ° | 94 % | 7.8 Km/h | |
| domingo 06/09/2026 09:00 hs | lluvia ligera | 100 % | 20.7 ° | 92 % | 16.9 Km/h | |
| domingo 06/09/2026 12:00 hs | lluvia ligera | 100 % | 20.6 ° | 89 % | 21.2 Km/h | |
| domingo 06/09/2026 15:00 hs | lluvia ligera | 100 % | 20 ° | 90 % | 22 Km/h | |
| domingo 06/09/2026 18:00 hs | lluvia ligera | 100 % | 19.3 ° | 88 % | 24.5 Km/h | |
| domingo 06/09/2026 21:00 hs | lluvia ligera | 100 % | 18.9 ° | 88 % | 26.1 Km/h |
Fuente: Open Weather Map
Como en toda la región del estado de Río de Janeiro, Buzios, también se suele caracterizar por veranos con tendencia a ser lluviosos e inviernos más secos, algo más frios de noche pero con más días soleados.
Según datos históricos también podemos apreciar que en promedio las temperaturas mínimas normalmente no suelen bajar de los 19 grados.
Ver artículos sobre Clima en Brasil
Ver Resumen sobre el clima en Brasil en cada región
© 2009 / 2026 - BrasilPlayas.com
Diseño y desarrollo: ArraialWebDesign
Los artículos publicados en esta web son propiedad intelectual de sus respectivos autores, que se reservan todos los derechos sobre los mismos
Las imágenes contenidas en este sitio están sujetas a la respectiva licencia y acreditación que las acompaña
Este website usa Cookies. Saber más sobre nuestra política de Cookies